Hutchinson, KS

4:54 AM CDT on September 25, 2017 (GMT -0500)
Hutchinson Municipal

Weather History for KHUT - September, 2013

Change the Weather History Date:

Sunday, September 29, 2013

  Actual Average Record
Temperature  
Mean Temperature 59 °F -  
Max Temperature 77 °F 74 °F 93 °F (2002)
Min Temperature 43 °F 47 °F 32 °F (2005)
Degree Days  
Heating Degree Days 6    
Growing Degree Days 9 (Base 50)    
Moisture  
Dew Point 43 °F    
Average Humidity 62    
Maximum Humidity 93    
Minimum Humidity 25    
Precipitation  
Precipitation 0.00 in - - ()
Sea Level Pressure  
Sea Level Pressure 30.02 in    
Wind  
Wind Speed 3 mph (South)    
Max Wind Speed 12 mph    
Max Gust Speed 16 mph    
Visibility 10 miles    
Events      
Averages and records for this station are not official NWS values.
T = Trace of Precipitation, MM = Missing Value Source: NWS Daily Summary

Daily Weather History Graph

Daily Weather History Graph

Search for Another Location

Airport or City:

Trip Planner

Search our weather history database for the weather conditions in past years. The results will help you decide how hot, cold, wet, or windy it might be!

Date:

Astronomy

Sep. 29, 2013 Rise Set
Actual Time 7:25 AM CDT 7:17 PM CDT
Civil Twilight 6:59 AM CDT 7:43 PM CDT
Nautical Twilight 6:28 AM CDT 8:13 PM CDT
Astronomical Twilight 5:57 AM CDT 8:44 PM CDT
Moon 2:12 AM CDT (9/29) 4:10 PM CDT (9/29)
Length of Visible Light 12h 43m
Length of Day
11h 51m
Waning Crescent, 27% of the Moon is Illuminated
Sep 29
Waning Crescent
Oct 4
New
Oct 11
First Quarter
Oct 18
Full
Oct 26
Last Quarter

Hourly Weather History & Observations

Time (CDT) Temp. Windchill Dew Point Humidity Pressure Visibility Wind Dir Wind Speed Gust Speed Precip Events Conditions
12:52 AM 46.0 °F - 42.1 °F 86% 30.11 in 10.0 mi Calm Calm - N/A   Clear
1:52 AM 46.0 °F - 43.0 °F 89% 30.11 in 10.0 mi Calm Calm - N/A   Clear
2:52 AM 44.1 °F - 42.1 °F 93% 30.11 in 9.0 mi Calm Calm - N/A   Clear
3:52 AM 45.0 °F - 43.0 °F 93% 30.09 in 10.0 mi Calm Calm - N/A   Clear
4:52 AM 45.0 °F 43.5 °F 42.1 °F 90% 30.09 in 10.0 mi WNW 3.5 mph - N/A   Clear
5:52 AM 45.0 °F 43.5 °F 42.1 °F 90% 30.09 in 10.0 mi NW 3.5 mph - N/A   Clear
6:52 AM 43.0 °F - 41.0 °F 93% 30.10 in 10.0 mi Calm Calm - N/A   Clear
7:52 AM 43.0 °F - 41.0 °F 93% 30.10 in 10.0 mi Calm Calm - N/A   Clear
8:52 AM 54.0 °F - 46.9 °F 77% 30.11 in 10.0 mi Calm Calm - N/A   Clear
9:52 AM 61.0 °F - 48.0 °F 62% 30.11 in 10.0 mi Calm Calm - N/A   Clear
10:52 AM 66.9 °F - 41.0 °F 39% 30.10 in 10.0 mi SSW 6.9 mph - N/A   Clear
11:52 AM 72.0 °F - 42.1 °F 34% 30.07 in 10.0 mi SW 4.6 mph - N/A   Clear
12:52 PM 73.9 °F - 37.9 °F 27% 30.04 in 10.0 mi Variable 6.9 mph - N/A   Clear
1:52 PM 75.0 °F - 37.9 °F 26% 30.01 in 10.0 mi SE 6.9 mph - N/A   Clear
2:52 PM 75.0 °F - 37.0 °F 25% 29.98 in 10.0 mi Variable 5.8 mph - N/A   Clear
3:52 PM 75.9 °F - 39.0 °F 26% 29.94 in 10.0 mi SSE 6.9 mph 16.1 mph N/A   Clear
4:52 PM 75.0 °F - 39.0 °F 27% 29.93 in 10.0 mi SSE 10.4 mph - N/A   Clear
5:52 PM 73.9 °F - 43.0 °F 33% 29.92 in 10.0 mi South 11.5 mph - N/A   Clear
6:52 PM 69.1 °F - 45.0 °F 42% 29.92 in 10.0 mi SSE 8.1 mph - N/A   Clear
7:52 PM 61.0 °F - 46.0 °F 58% 29.93 in 10.0 mi SE 5.8 mph - N/A   Clear
8:52 PM 55.0 °F - 46.0 °F 72% 29.95 in 10.0 mi Calm Calm - N/A   Clear
9:52 PM 57.9 °F - 46.0 °F 65% 29.94 in 10.0 mi South 3.5 mph - N/A   Clear
10:52 PM 55.9 °F - 46.9 °F 72% 29.91 in 10.0 mi SSE 6.9 mph - N/A   Clear
11:52 PM 55.0 °F - 46.0 °F 72% 29.91 in 10.0 mi SSE 6.9 mph - N/A   Clear